Printer-friendly version

IAU Minor Planet Center

Minor Planet Center

MPEC 2000-P32: 2000 PH5

The following Minor Planet Electronic Circular may be linked-to from your own Web pages, but must not otherwise be redistributed electronically.


Read MPEC 2000-P31 Read MPEC 2000-P33


M.P.E.C. 2000-P32                                Issued 2000 Aug. 7, 15:07 UT

     The Minor Planet Electronic Circulars contain information on unusual
         minor planets and routine data on comets.  They are published
   on behalf of Commission 20 of the International Astronomical Union by the
          Minor Planet Center, Smithsonian Astrophysical Observatory,
                          Cambridge, MA 02138, U.S.A.

             Prepared using the Tamkin Foundation Computer Network

             BMARSDEN@CFA.HARVARD.EDU or GWILLIAMS@CFA.HARVARD.EDU
          URL http://cfa-www.harvard.edu/iau/mpc.html  ISSN 1523-6714

                                   2000 PH5

Observations:
     K00P05H* C2000 08 03.16150 17 38 49.52 -01 16 41.6          17.2        704
     K00P05H  C2000 08 03.17575 17 38 59.56 -01 17 46.2          17.5        704
     K00P05H  C2000 08 03.20449 17 39 19.76 -01 19 56.5          17.8        704
     K00P05H  C2000 08 03.21874 17 39 29.75 -01 21 00.6          17.8        704
     K00P05H  C2000 08 04.14083 17 50 34.82 -02 25 31.0          18.0        704
     K00P05H  C2000 08 04.15472 17 50 43.12 -02 26 24.3          17.7        704
     K00P05H  C2000 08 04.18251 17 50 59.73 -02 28 11.7          18.2        704
     K00P05H  C2000 08 04.19640 17 51 08.00 -02 29 05.1          18.3        704
     K00P05H  C2000 08 04.94225 17 58 50.47 -03 14 48.8                      611
     K00P05H FC2000 08 04.94322 17 58 50.96 -03 14 53.0                      611
     K00P05H  C2000 08 05.18172 18 01 12.29 -03 27 32.6                      711
     K00P05H  C2000 08 05.18632 18 01 14.64 -03 27 47.8                      711
     K00P05H  C2000 08 05.19017 18 01 16.55 -03 28 00.6                      711
     K00P05H  C2000 08 06.87547 18 15 30.78 -04 50 26.4                      118
     K00P05H  C2000 08 06.87953 18 15 32.64 -04 50 36.4                      118
     K00P05H  C2000 08 06.88220 18 15 33.83 -04 50 42.3                      118

Observer details:
118 Modra.  Observers A. Galad, J. Toth.  0.6-m f/5.5 reflector + CCD.
611 Starkenburg.  Observers S. Kluegl, M. Busch, R. Stoss.  0.45-m f/4.4
    reflector + CCD.
704 Lincoln Laboratory ETS, New Mexico.  Observers M. Blythe, F. Shelly,
    M. Bezpalko, M. Elowitz, R. Huber, L. Manguso.  Measurers J. Stuart,
    R. Sayer, J. B. Evans, H. Viggh.  1.0-m f/2.15 reflector + CCD.
711 McDonald Observatory.  Observers P. J. Shelus, J. G. Ries.  0.76-m
    reflector + CCD.

Orbital elements:
2000 PH5                                                             PHA 0.008
Epoch 2000 Aug. 4.0 TT = JDT 2451760.5                  Hergenrother
M  88.71800              (2000.0)            P               Q
n   0.98795493     Peri.  271.21711     -0.96191471     +0.27106056
a   0.9984155      Node   284.51109     -0.23405096     -0.88344146
e   0.2319119      Incl.    2.08979     -0.14120989     -0.38217452
P   1.00           H   21.9           G   0.15
From 16 observations 2000 Aug. 3-6.

Ephemeris:
2000 PH5                 a,e,i = 1.00, 0.23, 2                   q = 0.7669
Date    TT    R. A. (2000) Decl.     Delta      r     Elong.  Phase     V
2000 08 04    17 48.96   -02 14.4    0.046    1.045   131.4    46.8    17.1
2000 08 09    18 29.64   -06 07.8    0.066    1.064   138.0    39.7    17.7
2000 08 14    18 52.70   -08 11.8    0.088    1.081   139.7    37.3    18.3
2000 08 19    19 08.24   -09 28.6    0.111    1.098   139.2    37.0    18.8
2000 08 24    19 20.15   -10 21.1    0.135    1.114   137.6    37.7    19.3
2000 08 29    19 30.23   -10 58.8    0.159    1.129   135.5    38.8    19.7
2000 09 03    19 39.44   -11 26.4    0.185    1.143   133.1    40.1    20.1
2000 09 08    19 48.26   -11 46.0    0.212    1.156   130.5    41.5    20.5
2000 09 13    19 56.94   -11 58.9    0.239    1.168   127.9    42.8    20.8
2000 09 18    20 05.61   -12 06.1    0.268    1.180   125.2    44.1    21.1
2000 09 23    20 14.37   -12 08.1    0.297    1.190   122.5    45.4    21.4
2000 09 28    20 23.31   -12 05.2    0.327    1.198   119.8    46.5    21.6
2000 10 03    20 32.47   -11 57.6    0.357    1.206   117.2    47.6    21.9
2000 10 08    20 41.86   -11 45.3    0.388    1.213   114.6    48.5    22.1
2000 10 13    20 51.46   -11 28.6    0.420    1.219   112.0    49.4    22.3

Carl W. Hergenrother         (C) Copyright 2000 MPC           M.P.E.C. 2000-P32

Read MPEC 2000-P31 Read MPEC 2000-P33


Our Web policy. Index to the CBAT/MPC/ICQ pages.


Valid HTML 4.01!